• In United Kingdom
  • List of Countries
  • For 7 days
  • Water Temperature
  • Satellite Maps
  • Weather Map
  • Weather Widgets
  • user-avatar
    Login

    Hourly Weather Gagra

    Today, 21 September, Thursday

    Time Temperature Precipitation Wind Pressure Humidity
    00:00 +24°C° 0 mm 2 mps 732 mmHg 58%
    01:00 +24°C° 0 mm 2 mps 732 mmHg 56%
    02:00 +24°C° 0 mm 3 mps 732 mmHg 54%
    03:00 +24°C° 0 mm 3 mps 732 mmHg 51%
    04:00 +24°C° 0 mm 3 mps 732 mmHg 49%
    05:00 +24°C° 0 mm 3 mps 732 mmHg 47%
    06:00 +22°C° 0 mm 3 mps 732 mmHg 44%
    07:00 +26°C° 0 mm 2 mps 731 mmHg 41%
    08:00 +29°C° 0 mm 2 mps 731 mmHg 38%
    09:00 +33°C° 0 mm 1 mps 731 mmHg 34%
    10:00 +34°C° 0 mm 1 mps 731 mmHg 31%
    11:00 +35°C° 0 mm 1 mps 731 mmHg 28%
    12:00 +36°C° 0 mm 1 mps 731 mmHg 25%
    13:00 +35°C° 0 mm 1 mps 731 mmHg 26%
    14:00 +36°C° 0 mm 2 mps 731 mmHg 27%
    15:00 +36°C° 0 mm 2 mps 730 mmHg 28%
    16:00 +32°C° 0 mm 2 mps 730 mmHg 37%
    17:00 +30°C° 0 mm 2 mps 730 mmHg 45%
    18:00 +28°C° 0 mm 3 mps 729 mmHg 54%
    19:00 +27°C° 0 mm 3 mps 729 mmHg 54%
    20:00 +26°C° 0 mm 2 mps 729 mmHg 55%
    21:00 +25°C° 0 mm 2 mps 729 mmHg 55%
    22:00 +25°C° 0 mm 2 mps 729 mmHg 52%
    23:00 +25°C° 0 mm 2 mps 729 mmHg 48%

    Tomorrow, 22 September, Friday

    Time Temperature Precipitation Wind Pressure Humidity
    00:00 +25°C° 0 mm 2 mps 729 mmHg 44%
    01:00 +25°C° 0 mm 2 mps 729 mmHg 40%
    02:00 +25°C° 0 mm 3 mps 729 mmHg 36%
    03:00 +24°C° 0 mm 3 mps 729 mmHg 32%
    04:00 +24°C° 0 mm 3 mps 729 mmHg 33%
    05:00 +24°C° 0 mm 3 mps 729 mmHg 33%
    06:00 +24°C° 0 mm 3 mps 729 mmHg 34%
    07:00 +26°C° 0 mm 2 mps 729 mmHg 34%
    08:00 +29°C° 0 mm 2 mps 729 mmHg 34%
    09:00 +32°C° 0 mm 2 mps 730 mmHg 34%
    10:00 +32°C° 0 mm 2 mps 730 mmHg 33%
    11:00 +34°C° 0 mm 2 mps 730 mmHg 32%
    12:00 +34°C° 0 mm 3 mps 730 mmHg 32%
    13:00 +34°C° 0 mm 3 mps 731 mmHg 34%
    14:00 +33°C° 0 mm 3 mps 731 mmHg 36%
    15:00 +32°C° 0 mm 2 mps 731 mmHg 38%
    16:00 +30°C° 0 mm 2 mps 731 mmHg 49%
    17:00 +27°C° 0 mm 2 mps 732 mmHg 60%
    18:00 +25°C° 0 mm 2 mps 732 mmHg 70%
    19:00 +24°C° 0.1 mm 2 mps 732 mmHg 70%
    20:00 +24°C° 0.1 mm 1 mps 733 mmHg 70%
    21:00 +23°C° 0.1 mm 1 mps 733 mmHg 70%
    22:00 +21°C° 0.1 mm 2 mps 733 mmHg 70%
    23:00 +21°C° 0.1 mm 2 mps 733 mmHg 71%

    Day after tomorrow, 23 September, Saturday

    Time Temperature Precipitation Wind Pressure Humidity
    00:00 +21°C° 0.1 mm 2 mps 734 mmHg 72%
    01:00 +20°C° 0.1 mm 2 mps 734 mmHg 72%
    02:00 +20°C° 0.1 mm 2 mps 734 mmHg 73%
    03:00 +20°C° 0.1 mm 3 mps 734 mmHg 74%
    04:00 +20°C° 0.1 mm 3 mps 734 mmHg 73%
    05:00 +20°C° 0.1 mm 3 mps 734 mmHg 73%
    06:00 +20°C° 0.1 mm 3 mps 734 mmHg 72%
    07:00 +22°C° 0.3 mm 3 mps 734 mmHg 69%
    08:00 +25°C° 0.3 mm 3 mps 734 mmHg 66%
    09:00 +27°C° 0.3 mm 3 mps 734 mmHg 63%
    10:00 +27°C° 1.1 mm 3 mps 734 mmHg 64%
    11:00 +28°C° 1.1 mm 3 mps 734 mmHg 64%
    12:00 +28°C° 1.1 mm 3 mps 734 mmHg 65%
    13:00 +28°C° 1.5 mm 3 mps 735 mmHg 69%
    14:00 +27°C° 1.5 mm 3 mps 735 mmHg 73%
    15:00 +26°C° 1.5 mm 3 mps 735 mmHg 77%
    16:00 +25°C° 0.7 mm 3 mps 735 mmHg 81%
    17:00 +24°C° 0.7 mm 2 mps 735 mmHg 84%
    18:00 +23°C° 0.7 mm 2 mps 736 mmHg 88%
    19:00 +21°C° 0.5 mm 2 mps 736 mmHg 88%
    20:00 +20°C° 0.5 mm 2 mps 736 mmHg 88%
    21:00 +20°C° 0.5 mm 3 mps 737 mmHg 88%
    22:00 +19°C° 0.4 mm 3 mps 737 mmHg 88%
    23:00 +19°C° 0.4 mm 3 mps 737 mmHg 88%

    24 September, Sunday

    Time Temperature Precipitation Wind Pressure Humidity
    00:00 +19°C° 0.4 mm 3 mps 737 mmHg 88%
    01:00 +19°C° 0.2 mm 3 mps 737 mmHg 88%
    02:00 +19°C° 0.2 mm 3 mps 737 mmHg 87%
    03:00 +18°C° 0.2 mm 2 mps 737 mmHg 87%
    04:00 +18°C° 0.1 mm 2 mps 737 mmHg 86%
    05:00 +18°C° 0.1 mm 2 mps 738 mmHg 86%
    06:00 +18°C° 0.1 mm 2 mps 738 mmHg 85%
    07:00 +20°C° 0.1 mm 2 mps 738 mmHg 79%
    08:00 +23°C° 0.1 mm 2 mps 738 mmHg 73%
    09:00 +25°C° 0.1 mm 2 mps 738 mmHg 68%
    10:00 +26°C° 0.1 mm 2 mps 738 mmHg 66%
    11:00 +27°C° 0.1 mm 2 mps 738 mmHg 64%
    12:00 +27°C° 0.1 mm 2 mps 738 mmHg 62%
    13:00 +27°C° 0.2 mm 2 mps 738 mmHg 65%
    14:00 +27°C° 0.2 mm 2 mps 738 mmHg 68%
    15:00 +26°C° 0.2 mm 2 mps 738 mmHg 71%
    16:00 +25°C° 0.1 mm 2 mps 738 mmHg 77%
    17:00 +24°C° 0.1 mm 2 mps 738 mmHg 82%
    18:00 +23°C° 0.1 mm 2 mps 737 mmHg 87%
    19:00 +21°C° 0 mm 2 mps 737 mmHg 87%
    20:00 +21°C° 0 mm 2 mps 738 mmHg 87%
    21:00 +21°C° 0 mm 1 mps 738 mmHg 87%
    22:00 +21°C° 0 mm 1 mps 737 mmHg 86%
    23:00 +20°C° 0 mm 1 mps 737 mmHg 86%

    25 September, Monday

    Time Temperature Precipitation Wind Pressure Humidity
    00:00 +20°C° 0 mm 1 mps 737 mmHg 85%
    01:00 +19°C° 0 mm 2 mps 737 mmHg 84%
    02:00 +19°C° 0 mm 2 mps 737 mmHg 84%
    03:00 +19°C° 0 mm 2 mps 737 mmHg 83%
    04:00 +18°C° 0 mm 2 mps 736 mmHg 80%
    05:00 +18°C° 0 mm 2 mps 736 mmHg 78%
    06:00 +18°C° 0 mm 2 mps 736 mmHg 76%
    07:00 +22°C° 0 mm 1 mps 736 mmHg 68%
    08:00 +24°C° 0 mm 1 mps 736 mmHg 60%
    09:00 +25°C° 0 mm 0 mps 736 mmHg 53%
    10:00 +28°C° 0 mm 1 mps 736 mmHg 49%
    11:00 +29°C° 0 mm 1 mps 736 mmHg 45%
    12:00 +30°C° 0 mm 1 mps 736 mmHg 41%
    13:00 +30°C° 0 mm 2 mps 736 mmHg 44%
    14:00 +30°C° 0 mm 2 mps 735 mmHg 46%
    15:00 +29°C° 0 mm 2 mps 735 mmHg 49%
    16:00 +27°C° 0 mm 2 mps 735 mmHg 58%
    17:00 +25°C° 0 mm 2 mps 735 mmHg 67%
    18:00 +23°C° 0 mm 2 mps 734 mmHg 76%
    19:00 +23°C° 0 mm 2 mps 734 mmHg 75%
    20:00 +23°C° 0 mm 2 mps 734 mmHg 73%
    21:00 +21°C° 0 mm 2 mps 734 mmHg 72%
    22:00 +21°C° 0 mm 2 mps 734 mmHg 67%
    23:00 +21°C° 0 mm 2 mps 734 mmHg 62%

    26 September, Tuesday

    Time Temperature Precipitation Wind Pressure Humidity
    00:00 +20°C° 0 mm 2 mps 734 mmHg 58%
    01:00 +20°C° 0 mm 2 mps 734 mmHg 52%
    02:00 +20°C° 0 mm 2 mps 733 mmHg 46%
    03:00 +20°C° 0 mm 2 mps 733 mmHg 41%
    04:00 +20°C° 0 mm 2 mps 733 mmHg 40%
    05:00 +20°C° 0 mm 2 mps 733 mmHg 38%
    06:00 +20°C° 0 mm 2 mps 733 mmHg 37%
    07:00 +23°C° 0 mm 2 mps 733 mmHg 37%
    08:00 +26°C° 0 mm 1 mps 733 mmHg 36%
    09:00 +29°C° 0 mm 1 mps 733 mmHg 36%
    10:00 +29°C° 0 mm 1 mps 733 mmHg 35%
    11:00 +30°C° 0 mm 1 mps 732 mmHg 34%
    12:00 +31°C° 0 mm 2 mps 732 mmHg 33%
    13:00 +31°C° 0 mm 2 mps 732 mmHg 35%
    14:00 +31°C° 0 mm 2 mps 732 mmHg 37%
    15:00 +31°C° 0 mm 3 mps 731 mmHg 39%
    16:00 +28°C° 0 mm 3 mps 731 mmHg 49%
    17:00 +26°C° 0 mm 3 mps 731 mmHg 58%
    18:00 +24°C° 0 mm 3 mps 731 mmHg 68%
    19:00 +22°C° 0.1 mm 3 mps 731 mmHg 69%
    20:00 +21°C° 0.1 mm 3 mps 731 mmHg 69%
    21:00 +21°C° 0.1 mm 3 mps 731 mmHg 70%
    22:00 +20°C° 0.9 mm 3 mps 732 mmHg 74%
    23:00 +20°C° 0.9 mm 4 mps 732 mmHg 78%
    Show more